Weather History for KRWL - January, 2012

Change the Weather History Date:

Thursday, January 19, 2012

  Actual Average Record
Temperature  
Mean Temperature 37 °F 22 °F  
Max Temperature 42 °F 31 °F 47 °F (1986)
Min Temperature 31 °F 12 °F -36 °F (1963)
Degree Days  
Heating Degree Days 28 43  
Month to date heating degree days 727 817  
Since 1 July heating degree days 3994 4271  
Cooling Degree Days 0 0  
Month to date cooling degree days 0 0  
Year to date cooling degree days 0 0  
Moisture  
Dew Point 26 °F    
Average Humidity 69    
Maximum Humidity 89    
Minimum Humidity 49    
Precipitation  
Precipitation T in 0.01 in 0.26 in (2011)
Month to date precipitation 0.01 0.23  
Year to date precipitation 0.01 0.23  
Sea Level Pressure  
Sea Level Pressure 29.75 in    
Wind  
Wind Speed 30 mph (WSW)    
Max Wind Speed 38 mph    
Max Gust Speed 46 mph    
Visibility 10 miles    
Events Rain    
T = Trace of Precipitation, MM = Missing Value Source: NWS Daily Summary

Daily Weather History Graph

Daily Weather History Graph

Search for Another Location

Airport or City:

Trip Planner

Search our weather history database for the weather conditions in past years. The results will help you decide how hot, cold, wet, or windy it might be!

Date:

Astronomy

Jan. 19, 2012 Rise Set
Actual Time 7:31 AM MST 5:07 PM MST
Civil Twilight 7:01 AM MST 5:37 PM MST
Nautical Twilight 6:27 AM MST 6:11 PM MST
Astronomical Twilight 5:54 AM MST 6:45 PM MST
Moon 4:12 AM MST (1/19) 1:41 PM MST (1/19)
Length of Visible Light 10h 36m
Length of Day
9h 35m
Waning Crescent, 15% of the Moon is Illuminated
Jan 19
Waning Crescent
Jan 23
New
Jan 30
First Quarter
Feb 7
Full
Feb 14
Last Quarter

Hourly Weather History & Observations

Time (MST) Temp. Windchill Dew Point Humidity Pressure Visibility Wind Dir Wind Speed Gust Speed Precip Events Conditions
12:37 AM 33.8 °F 20.1 °F 24.8 °F 70% 29.78 in 10.0 mi WSW 29.9 mph 41.4 mph N/A   Mostly Cloudy
12:53 AM 34.0 °F 19.9 °F 25.0 °F 70% 29.78 in 10.0 mi WSW 32.2 mph 41.4 mph N/A   Scattered Clouds
1:53 AM 34.0 °F 19.7 °F 24.1 °F 67% 29.77 in 10.0 mi WSW 33.4 mph 46.0 mph N/A   Clear
2:53 AM 34.0 °F 20.5 °F 24.1 °F 67% 29.78 in 10.0 mi WSW 28.8 mph 41.4 mph N/A   Partly Cloudy
3:21 AM 33.8 °F 21.3 °F 24.8 °F 70% 29.80 in 10.0 mi WSW 24.2 mph 34.5 mph N/A   Mostly Cloudy
3:53 AM 35.1 °F 23.3 °F 24.1 °F 64% 29.81 in 10.0 mi WSW 23.0 mph 31.1 mph N/A   Overcast
4:03 AM 35.6 °F 24.8 °F 24.8 °F 65% 29.83 in 10.0 mi WSW 19.6 mph 34.5 mph N/A   Mostly Cloudy
4:53 AM 35.1 °F 22.2 °F 24.1 °F 64% 29.81 in 10.0 mi West 27.6 mph 42.6 mph N/A   Scattered Clouds
5:53 AM 32.0 °F 17.4 °F 24.1 °F 73% 29.80 in 10.0 mi WSW 31.1 mph 41.4 mph N/A   Clear
6:53 AM 35.1 °F 22.2 °F 25.0 °F 67% 29.81 in 10.0 mi WSW 27.6 mph 40.3 mph N/A   Overcast
7:10 AM 35.6 °F 23.0 °F 24.8 °F 65% 29.81 in 10.0 mi West 27.6 mph 38.0 mph N/A   Mostly Cloudy
7:21 AM 35.6 °F 21.5 °F 24.8 °F 65% 29.82 in 10.0 mi WSW 35.7 mph 44.9 mph N/A   Scattered Clouds
7:53 AM 33.1 °F 18.7 °F 24.1 °F 70% 29.81 in 10.0 mi WSW 32.2 mph 40.3 mph N/A   Scattered Clouds
8:09 AM 35.6 °F 22.1 °F 24.8 °F 65% 29.80 in 10.0 mi WSW 32.2 mph 46.0 mph N/A   Mostly Cloudy
8:53 AM 36.0 °F 21.8 °F 25.0 °F 64% 29.78 in 10.0 mi WSW 36.8 mph 49.5 mph N/A   Clear
9:53 AM 39.0 °F 26.4 °F 25.0 °F 57% 29.76 in 10.0 mi WSW 34.5 mph 52.9 mph N/A   Partly Cloudy
11:53 AM 39.9 °F 28.2 °F 25.0 °F 55% 29.75 in 10.0 mi SW 31.1 mph 47.2 mph N/A   Overcast
12:53 PM 39.9 °F 29.0 °F 25.0 °F 55% 29.69 in 10.0 mi SW 26.5 mph 40.3 mph N/A   Overcast
1:53 PM 41.0 °F 30.5 °F 25.0 °F 53% 29.66 in 10.0 mi WSW 26.5 mph 33.4 mph N/A   Overcast
2:53 PM 42.1 °F 31.9 °F 25.0 °F 51% 29.66 in 10.0 mi SW 26.5 mph 34.5 mph N/A   Overcast
3:53 PM 42.1 °F 32.8 °F 26.1 °F 53% 29.65 in 10.0 mi WSW 21.9 mph 31.1 mph N/A   Overcast
4:53 PM 41.0 °F 32.2 °F 26.1 °F 55% 29.67 in 10.0 mi WSW 18.4 mph 29.9 mph N/A   Overcast
6:53 PM 37.9 °F 26.8 °F 28.9 °F 70% 29.68 in 9.0 mi WSW 24.2 mph 36.8 mph 0.00 in Rain Light Rain
7:53 PM 36.0 °F 23.7 °F 32.0 °F 86% 29.70 in 10.0 mi WSW 26.5 mph 33.4 mph 0.00 in   Overcast
8:53 PM 35.1 °F 22.0 °F 30.9 °F 85% 29.68 in 10.0 mi WSW 28.8 mph 40.3 mph N/A   Mostly Cloudy
9:53 PM 36.0 °F 22.4 °F 30.0 °F 79% 29.65 in 10.0 mi WSW 33.4 mph 43.7 mph N/A   Partly Cloudy
10:53 PM 36.0 °F 22.0 °F 28.9 °F 76% 29.66 in 10.0 mi WSW 35.7 mph 41.4 mph N/A   Scattered Clouds
11:23 PM 35.6 °F 21.9 °F 28.4 °F 75% 29.74 in 10.0 mi WSW 33.4 mph 43.7 mph N/A   Mostly Cloudy
11:32 PM 35.6 °F 22.3 °F 28.4 °F 75% 29.74 in 10.0 mi WSW 31.1 mph 46.0 mph N/A   Scattered Clouds
11:53 PM 36.0 °F 22.8 °F 28.0 °F 73% 29.69 in 10.0 mi WSW 31.1 mph 40.3 mph N/A   Mostly Cloudy